CW8783 Weather Reports


time (UTC)temp
C
wind
direction
speed
KPH
gust
KPH
rain 1hr
cm
rain 24hr
cm
rain mn
cm
humidity
%
barometer
mb
20260505040803 12 69 1.6 3.2 0.00 0.00 0.00 67 1018.5
20260505030304 12 60 1.6 4.8 0.00 0.00 0.00 70 1018.5
20260505020803 12 194 1.6 1.6 0.00 0.00 0.00 71 1018.5
20260505020304 11 302 0.0 8.0 0.00 0.00 0.00 72 1018.5
20260505010803 11 57 1.6 3.2 0.00 0.00 0.00 72 1018.5
20260505010303 11 73 1.6 4.8 0.00 0.00 0.00 72 1018.5
20260505000803 12 15 1.6 1.6 0.00 0.00 0.00 70 1018.5
20260505000304 12 15 0.0 4.8 0.00 0.00 0.00 70 1018.5
20260504230804 12 339 0.0 1.6 0.00 0.00 0.00 68 1018.5
20260504220804 13 32 0.0 0.0 0.00 0.00 0.00 66 1018.6
20260504220304 14 32 0.0 3.2 0.00 0.00 0.00 63 1018.6
20260504210804 15 103 0.0 3.2 0.00 0.00 0.00 60 1018.6
20260504210304 15 71 0.0 4.8 0.00 0.00 0.00 58 1018.6
20260504200804 16 261 0.0 1.6 0.00 0.00 0.00 58 1018.6
20260504200303 16 259 1.6 4.8 0.00 0.00 0.00 56 1018.6
20260504190804 17 300 1.6 3.2 0.00 0.00 0.00 52 1018.6
20260504190304 17 349 3.2 4.8 0.00 0.00 0.00 52 1018.6
20260504180804 19 317 1.6 1.6 0.00 0.00 0.00 48 1018.6
20260504180304 19 290 1.6 12.9 0.00 0.00 0.00 48 1018.6
20260504170804 21 247 4.8 11.3 0.00 0.00 0.00 44 1018.7
20260504170304 21 90 3.2 11.3 0.00 0.00 0.00 42 1018.7
20260504160302 21 92 3.2 4.8 0.00 0.00 0.00 41 1018.7
20260504150802 20 89 3.2 4.8 0.00 0.00 0.00 44 1018.7
20260504140803 21 239 1.6 4.8 0.00 0.00 0.00 44 1018.7
20260504140302 21 239 1.6 19.3 0.00 0.00 0.00 44 1018.7
20260504130802 20 253 8.0 11.3 0.00 0.00 0.00 43 1018.7
20260504130302 20 261 3.2 14.5 0.00 0.00 0.00 41 1018.7
20260504120302 20 259 3.2 22.5 0.00 0.00 0.00 42 1018.7
20260504110303 21 254 12.9 19.3 0.00 0.00 0.00 42 1018.7
20260504100302 20 253 3.2 16.1 0.00 0.00 0.00 46 1018.7
20260504080802 17 242 1.6 4.8 0.00 0.00 0.00 56 1018.7
20260504080303 17 265 1.6 14.5 0.00 0.00 0.00 56 1018.7
20260504070303 15 253 3.2 4.8 0.00 0.00 0.00 61 1018.7
20260504050303 12 93 0.0 4.8 0.00 0.00 0.00 71 1018.7